Theta_e
278 278 278 278 278 277 276 276 276 276 276 275 274 273 273 272 272 271 271 271 271 272 271 271 271 271 271 271 271 271 271 271 271 272 272 272 272 271 271 270 269 267 266 268 271 270 270 271 270 269 269 268 269 269 270 272 271 272 272 272 273 273 276
279 279 278 277 277 277 276 276 276 277 275 275 274 273 273 272 272 271 271 271 270 271 271 271 270 270 270 270 271 270 271 270 270 270 270 271 270 270 269 270 268 267 266 265 269 270 271 270 270 267 269 268 268 268 270 270 271 272 272 273 273 272 273
279 278 278 277 277 277 277 277 277 276 276 275 274 273 272 272 272 271 271 270 270 270 271 270 270 270 269 269 269 270 270 270 269 269 269 268 268 268 269 270 270 269 267 267 268 270 268 268 268 267 267 268 269 269 270 270 270 271 273 273 272 272 272
279 278 277 277 277 276 276 276 276 275 275 275 274 273 272 272 272 272 271 271 270 270 270 269 269 269 269 269 268 269 269 269 268 268 268 268 268 269 269 270 271 270 269 268 267 267 267 268 267 268 269 269 269 269 269 270 271 272 271 271 271 271 271
279 278 277 277 276 276 276 276 276 276 275 275 274 273 273 272 272 272 271 271 271 271 270 269 269 269 269 268 268 268 268 268 267 267 267 267 268 269 270 270 270 270 270 268 266 266 267 268 269 269 268 269 268 269 270 271 271 270 270 270 271 271 272
278 278 277 277 277 277 276 276 276 276 275 275 274 274 273 273 272 272 272 271 271 271 271 270 269 269 269 267 267 268 267 266 266 266 267 267 268 268 269 270 270 270 269 267 266 266 266 268 267 267 267 268 269 269 269 270 270 270 270 269 269 270 271
277 277 277 277 277 277 277 276 276 276 275 275 274 273 273 272 272 272 272 272 271 271 271 271 270 269 269 268 267 267 267 266 265 266 266 267 267 268 269 269 269 269 268 268 267 267 268 267 268 267 266 268 270 270 270 268 267 266 268 268 268 268 270
276 277 277 277 277 277 277 277 276 275 275 274 274 273 273 273 272 272 272 272 272 272 271 271 270 270 269 268 268 267 267 266 266 267 266 268 268 269 269 269 268 268 267 267 267 267 267 267 266 267 268 269 269 269 269 269 267 264 265 266 267 268 268
277 277 276 277 277 277 277 276 275 275 275 274 273 273 273 272 272 272 272 271 271 271 271 271 270 269 268 269 271 273 272 270 270 267 267 268 269 270 269 269 268 268 267 267 267 267 267 267 266 267 267 267 267 267 266 267 266 265 265 266 266 268 269
278 278 277 276 277 276 276 276 276 276 278 277 274 273 273 273 272 272 272 271 271 271 271 270 270 269 272 272 274 274 274 275 275 275 273 271 271 270 270 270 269 268 268 268 267 267 267 266 266 266 267 267 268 268 267 265 265 264 265 266 266 267 268
278 277 277 277 276 276 276 276 276 278 279 280 279 274 273 272 272 272 272 271 271 271 270 270 270 269 272 273 274 273 275 275 275 275 276 277 277 276 272 270 269 268 268 267 267 268 267 266 266 266 267 267 266 266 265 265 265 265 265 264 263 262 266
277 277 277 277 276 276 275 275 277 279 280 280 280 278 273 273 272 272 272 271 271 271 271 270 269 269 269 269 269 269 268 272 274 275 275 276 276 275 275 275 272 270 269 269 267 267 266 266 265 266 266 265 265 264 265 266 266 265 265 264 264 264 263
277 277 277 277 276 276 276 275 278 280 280 280 281 280 276 273 272 272 272 272 271 271 270 270 269 268 268 268 273 272 270 269 270 273 274 274 274 274 274 274 274 274 271 270 268 267 267 267 266 264 264 265 265 266 265 266 265 266 265 265 265 265 266
277 277 277 276 276 276 276 275 277 279 280 280 281 281 279 273 272 272 272 272 271 271 270 269 268 268 268 268 269 270 270 270 269 268 266 265 265 263 266 270 272 272 273 272 269 268 266 267 267 265 266 267 268 266 265 265 265 265 265 265 264 265 265
277 276 276 276 276 275 275 275 278 279 280 280 281 281 280 275 273 272 272 272 272 271 271 270 269 268 268 268 268 268 269 267 266 265 264 264 264 263 263 264 264 264 266 268 269 269 268 268 268 268 268 268 269 268 268 267 266 265 265 264 265 264 264
277 276 276 276 276 275 275 275 279 279 280 280 281 281 279 277 274 273 272 272 271 271 271 270 269 268 268 268 267 270 274 273 270 267 266 265 265 265 266 266 269 272 273 272 272 271 270 269 270 273 271 270 269 268 267 266 265 265 264 262 260 258 259
277 277 276 276 275 275 275 275 277 280 280 280 281 280 278 277 276 274 273 272 272 272 271 270 269 269 268 268 267 271 274 274 273 271 269 268 268 267 267 267 268 272 273 274 274 274 274 274 273 272 272 272 271 268 266 264 262 261 261 259 257 257 257
276 276 276 276 275 275 274 274 276 279 280 280 281 280 277 277 276 274 273 272 272 272 271 271 273 272 268 268 267 272 274 274 273 270 269 269 267 266 266 267 266 266 265 269 271 270 269 268 268 268 268 267 267 267 267 262 259 260 259 258 257 256 256
276 276 276 276 276 277 275 274 276 278 280 280 280 280 277 276 275 274 273 272 271 272 271 271 273 275 272 270 270 274 274 274 273 270 269 268 267 266 265 265 265 262 261 262 260 256 254 255 259 257 255 257 264 265 264 260 259 260 259 257 257 257 256
276 275 275 275 275 275 276 275 274 276 279 280 280 281 278 276 275 274 273 272 271 271 270 270 270 273 276 275 275 275 275 274 274 270 268 268 266 264 263 266 263 262 263 260 255 253 252 253 253 253 254 253 254 256 258 259 260 260 260 258 258 257 257
275 275 274 274 275 274 275 275 274 275 279 279 280 281 280 276 275 274 273 272 270 269 268 267 267 265 273 275 275 274 274 273 273 273 270 267 266 265 268 266 258 258 261 254 253 253 253 253 253 253 253 253 254 255 256 258 259 260 260 259 258 257 257
274 274 274 274 274 274 274 275 275 274 277 279 280 280 281 277 275 275 273 271 269 268 267 266 266 264 270 274 274 273 273 272 272 273 269 267 271 272 270 262 258 254 252 251 252 252 252 252 252 252 253 253 254 255 256 257 258 259 260 260 260 259 258
273 273 273 273 273 273 273 274 274 276 275 277 279 280 280 280 277 278 274 271 269 268 268 266 264 265 272 273 273 273 272 272 272 269 268 270 270 269 267 261 252 253 250 251 251 252 251 252 251 252 252 253 253 254 255 256 257 258 259 260 261 262 262
273 272 272 272 272 272 272 273 273 275 277 275 278 279 280 280 279 279 274 272 271 269 268 264 262 266 273 273 272 272 272 271 269 268 269 268 267 265 262 253 251 250 250 251 251 251 251 251 252 252 252 253 254 254 254 256 257 259 260 260 261 262 262
273 272 272 272 271 271 272 272 273 273 275 277 277 278 279 279 280 279 277 273 271 269 267 268 270 273 273 272 272 272 270 268 268 268 267 266 265 261 251 251 249 250 249 249 250 251 251 251 252 252 253 253 253 254 255 256 258 259 261 261 262 262 262
273 272 272 271 271 271 271 271 272 272 273 275 276 277 278 279 279 279 277 274 271 272 272 273 273 273 273 272 269 263 260 259 262 266 265 264 260 248 250 251 254 253 250 249 250 251 251 252 252 252 253 253 253 253 253 255 256 258 259 260 260 260 261
272 272 271 271 271 271 271 270 271 271 271 273 274 274 275 276 277 279 278 274 272 273 272 273 271 269 268 267 268 266 266 265 263 257 255 249 249 250 251 253 255 254 250 249 250 251 251 251 252 252 252 252 252 252 253 255 256 257 258 259 259 259 259
272 272 271 271 271 271 270 270 270 270 270 271 273 273 273 274 274 275 273 271 271 270 270 269 270 267 263 261 258 256 253 252 251 251 251 250 249 249 252 258 259 258 250 247 248 250 250 251 251 251 251 252 251 252 253 254 256 257 257 258 258 258 257
273 273 273 272 271 270 269 269 269 270 273 272 274 273 272 272 272 271 270 271 270 264 263 262 261 259 258 257 255 253 251 250 249 249 249 250 249 248 247 247 247 249 249 249 249 250 251 251 250 251 251 251 251 252 252 253 255 257 256 258 258 257 257
274 274 274 273 273 272 271 269 270 274 275 275 276 276 276 275 275 273 271 272 271 267 263 261 260 258 257 255 254 253 251 250 248 249 250 250 256 250 249 250 249 248 249 250 250 250 250 250 250 250 250 250 251 251 252 254 257 255 256 256 256 256 257
280 279 277 274 272 273 276 275 275 275 276 276 276 277 277 276 276 275 274 273 267 264 261 259 258 255 254 254 253 253 252 250 250 250 249 249 248 248 250 251 249 250 250 250 250 250 249 250 249 250 250 250 251 251 251 252 253 254 255 255 256 256 256
280 280 279 278 275 273 273 275 276 276 277 277 277 277 277 277 277 276 275 274 271 263 261 260 257 254 254 253 253 252 251 250 250 249 249 247 248 250 250 250 249 252 248 249 250 250 250 250 250 250 250 250 250 251 250 251 252 253 254 255 256 256 256
278 278 279 279 278 277 275 275 276 277 277 277 277 277 277 277 277 277 276 274 267 262 260 259 257 256 254 254 254 252 252 250 250 250 248 246 247 248 249 248 249 250 249 250 252 250 248 249 249 250 250 250 250 250 250 251 251 252 253 254 254 255 256
275 276 276 277 279 278 277 277 277 277 277 277 277 277 277 277 275 277 277 272 265 262 259 258 257 255 254 254 253 252 252 251 250 249 249 248 247 246 245 246 247 247 249 248 249 248 249 249 249 249 249 249 249 250 248 250 251 251 252 252 253 254 254
270 272 274 274 276 278 278 277 277 277 277 277 278 277 277 277 274 273 272 269 263 261 258 256 256 255 254 254 253 253 253 253 251 249 249 249 248 246 247 247 248 249 248 247 247 249 250 250 249 248 249 249 249 249 250 250 250 250 251 252 253 253 254
268 269 271 273 275 278 278 278 277 277 277 277 278 277 278 273 271 271 268 263 263 260 258 257 256 256 255 255 254 253 253 253 252 250 250 248 248 249 248 249 249 249 248 247 247 248 250 250 248 248 249 248 248 248 249 249 249 249 251 252 252 253 253
Wind_Speed
11 11 12 12 14 12 8 9 10 9 12 11 13 8 8 8 8 9 8 7 9 8 8 9 10 10 9 6 7 6 5 6 6 5 5 6 6 6 6 8 9 12 16 14 10 13 13 11 11 13 12 14 13 13 11 14 13 14 12 12 11 11 17
10 10 11 12 12 8 9 9 11 13 9 13 12 8 6 8 10 10 10 8 9 9 8 8 9 9 8 7 8 6 7 5 5 5 6 6 6 6 6 7 10 12 14 20 13 17 11 11 10 14 14 11 14 14 13 14 14 12 12 11 10 11 11
10 11 11 14 13 10 8 11 13 12 11 12 15 12 8 8 9 10 10 9 10 10 8 9 9 9 7 5 6 7 6 5 6 5 6 6 5 7 7 8 11 12 13 14 18 12 7 6 10 11 16 13 11 13 14 16 14 12 10 10 12 12 10
9 9 12 11 8 7 9 8 10 9 10 13 14 13 10 12 12 11 11 11 11 9 9 10 9 9 7 6 7 7 6 5 5 5 5 6 6 7 8 9 8 9 12 12 18 5 9 11 11 14 11 11 12 14 14 12 12 10 11 13 12 12 11
8 9 14 8 9 9 10 12 13 13 13 12 12 14 14 12 11 11 11 10 10 10 10 10 10 9 7 6 8 7 7 5 6 5 5 6 6 7 8 8 9 10 8 9 11 13 11 10 15 15 14 12 13 13 13 13 11 10 12 14 12 10 10
9 11 16 12 15 13 13 14 13 12 13 13 12 12 11 10 10 10 10 10 10 10 10 10 10 9 7 8 9 8 7 6 7 5 6 6 6 7 7 9 9 7 8 9 12 14 12 13 15 16 14 11 11 14 15 15 13 12 12 13 13 10 9
10 10 13 15 13 13 13 13 12 12 12 12 12 12 12 11 11 10 10 10 9 9 8 8 9 8 8 9 9 8 8 6 6 6 7 7 8 8 9 9 10 10 10 11 11 11 12 16 16 13 16 11 11 15 14 16 17 14 10 11 13 13 9
11 10 10 12 13 12 11 11 11 11 11 11 12 11 11 11 10 10 9 9 9 9 10 10 10 9 9 9 8 8 7 7 7 6 7 7 8 10 11 10 8 7 8 9 10 10 15 16 15 14 12 13 13 13 12 10 13 18 16 14 12 14 17
10 10 10 11 11 11 11 10 11 10 11 11 13 11 11 11 10 10 9 9 8 9 9 10 9 9 8 9 12 14 12 10 10 7 8 9 9 11 10 8 6 7 8 8 8 11 15 16 16 15 14 14 12 12 13 14 14 15 16 15 20 14 9
10 11 11 11 11 10 10 10 9 13 20 18 12 12 10 10 7 10 10 9 9 9 9 9 8 9 14 15 17 17 17 18 18 19 14 10 10 11 9 8 7 7 7 8 10 10 12 15 14 15 14 15 14 12 11 10 12 18 18 18 16 15 12
11 11 10 11 11 11 10 10 10 20 23 26 24 14 11 11 9 10 10 10 9 9 8 8 8 7 11 14 15 14 19 18 19 18 20 22 20 13 8 6 8 8 7 7 7 8 9 11 15 16 12 12 9 5 8 12 13 16 16 11 13 19 12
11 11 10 9 10 11 11 11 15 23 24 25 26 21 12 11 9 8 9 9 9 8 7 8 8 8 7 8 8 7 6 11 16 18 18 19 18 19 20 19 14 11 9 9 8 7 10 12 14 11 8 11 11 11 12 13 13 15 13 15 16 14 17
11 11 10 10 11 12 11 10 17 23 25 25 25 26 19 8 11 7 7 10 9 8 8 7 7 7 7 7 15 11 8 8 8 12 16 18 19 19 18 19 21 22 16 10 11 11 13 8 8 11 12 10 14 13 14 11 11 12 14 14 16 17 17
11 10 10 11 11 11 10 10 15 24 25 25 25 26 20 10 12 9 10 11 10 9 9 8 8 7 7 7 8 7 7 5 6 7 6 5 6 7 10 13 17 19 21 18 12 12 13 13 10 13 15 13 13 14 11 9 10 15 14 14 15 18 18
11 11 11 10 10 9 9 9 18 23 25 24 25 25 22 10 11 8 9 9 9 10 9 8 8 8 7 7 7 6 7 6 6 5 6 6 8 7 7 8 8 7 8 10 11 11 11 12 11 14 15 10 7 9 13 13 14 12 15 17 17 15 10
8 10 10 9 9 9 9 9 20 22 24 24 24 25 14 9 10 9 8 9 9 9 9 8 8 8 7 7 7 9 13 11 7 7 7 8 8 8 8 9 9 14 15 13 10 8 10 11 13 18 16 17 16 13 9 11 12 13 13 12 13 15 11
10 9 9 9 9 10 10 9 17 22 23 23 25 19 10 9 8 9 9 9 10 9 8 8 8 8 7 7 6 9 13 13 12 7 6 7 9 8 7 8 7 12 16 18 21 24 24 23 23 23 26 26 25 17 14 10 10 10 8 8 10 15 11
7 7 8 9 10 10 10 9 14 21 22 23 24 19 9 8 8 8 9 8 8 7 7 9 16 12 8 8 7 11 14 12 9 6 6 7 5 8 10 9 3 4 6 11 15 15 16 18 21 22 20 19 20 20 15 8 10 9 7 10 8 13 13
7 7 7 8 9 13 12 8 11 20 21 22 22 18 9 9 8 8 8 8 8 8 7 8 12 16 12 10 9 14 12 11 8 3 3 4 8 10 9 6 5 5 5 5 6 6 7 9 10 9 9 10 19 19 15 8 10 9 9 9 6 11 11
6 8 8 7 8 9 10 8 7 12 21 21 22 23 11 8 8 9 9 8 8 8 6 7 7 11 17 16 15 12 10 8 9 5 4 5 4 4 7 5 1 3 4 6 5 8 6 8 8 8 7 7 8 9 8 10 9 9 9 10 10 10 8
6 7 7 6 8 7 8 8 8 10 21 21 22 22 19 8 9 8 8 8 8 8 8 7 7 4 11 14 12 10 8 8 8 9 3 4 2 4 8 3 3 5 7 5 6 7 7 7 6 6 6 7 7 7 6 7 9 9 10 10 10 10 11
6 6 6 5 6 6 7 8 11 8 17 21 21 21 23 10 9 10 8 8 7 7 7 8 7 6 9 13 11 9 8 7 9 8 4 1 7 12 8 5 2 3 5 5 5 7 7 7 7 7 7 6 6 7 8 8 8 9 10 11 10 11 11
6 6 6 5 5 5 7 7 8 14 11 18 20 20 20 18 10 19 11 9 9 9 8 6 6 6 11 11 10 8 8 7 1 6 2 6 7 6 10 8 4 4 5 5 5 6 7 7 7 8 8 7 8 8 8 9 10 11 12 11 11 11 11
6 6 6 7 6 5 6 7 6 12 17 13 19 18 19 20 17 20 10 9 8 7 7 7 6 7 13 11 9 7 7 6 4 2 1 2 3 8 7 3 4 3 3 5 6 5 7 7 7 7 7 8 8 9 10 11 12 12 12 12 10 11 11
6 7 7 6 7 6 6 7 7 6 12 17 17 18 18 18 19 21 18 10 6 8 8 10 14 15 14 10 8 9 10 6 5 4 2 4 7 7 2 2 1 3 3 5 6 6 6 6 7 7 8 9 9 10 10 8 9 10 10 10 10 9 8
5 6 6 6 6 6 6 7 6 7 7 10 13 13 17 18 18 20 19 14 10 13 16 16 17 17 13 10 10 7 5 5 3 6 6 6 8 2 1 1 2 2 3 5 4 6 6 7 7 8 8 8 7 7 8 9 10 10 9 9 9 9 7
5 6 6 6 6 6 6 6 7 7 7 7 7 7 8 10 11 17 19 11 9 12 11 13 12 9 12 9 11 11 9 8 7 7 6 4 2 1 1 0 1 1 2 4 5 6 6 6 7 7 7 8 8 8 8 8 9 9 9 10 9 8 8
6 7 7 7 6 6 6 6 6 7 8 8 8 7 7 6 4 5 8 9 9 9 9 10 11 11 7 8 8 6 6 5 4 5 4 1 0 1 2 4 5 3 1 3 3 5 5 6 5 7 8 7 8 7 8 8 8 8 9 9 9 8 8
7 7 7 7 7 7 7 6 7 10 11 10 12 10 8 7 6 6 9 13 17 11 9 9 8 8 7 6 7 6 6 4 4 4 1 0 1 3 3 2 3 4 5 4 4 5 6 7 6 7 6 7 7 8 8 8 7 7 7 8 7 7 8
7 7 7 7 7 8 9 10 11 13 18 18 19 19 17 13 11 14 13 20 25 15 10 8 8 7 7 7 6 6 6 6 5 5 2 1 2 3 2 2 1 2 4 4 4 4 5 6 6 7 7 7 7 8 8 9 9 8 8 7 9 8 9
14 13 12 9 6 8 13 12 12 16 19 19 20 20 20 19 17 21 23 24 15 9 9 8 7 6 5 6 6 6 7 5 6 4 3 2 0 1 1 3 1 2 3 4 3 4 4 5 5 6 7 7 8 8 9 8 6 6 7 7 7 7 8
11 12 12 15 12 8 6 11 14 17 18 19 20 20 20 21 20 23 25 24 20 10 7 8 8 7 6 6 6 6 6 6 6 5 4 3 2 2 1 1 2 1 1 3 3 3 6 5 6 6 6 6 7 8 7 8 8 8 8 8 7 6 7
8 7 8 11 16 15 13 11 13 16 18 19 20 20 20 21 22 23 25 23 11 9 8 6 7 7 6 6 7 6 6 6 5 6 5 3 3 2 0 0 2 2 1 2 3 3 4 5 5 6 7 7 7 7 7 8 8 8 7 7 7 6 8
5 6 6 9 7 18 15 15 15 16 18 19 19 20 21 20 16 22 24 17 9 9 8 7 7 6 7 6 6 6 6 6 5 5 5 3 2 2 0 0 1 2 2 1 3 4 3 4 5 6 6 7 7 6 6 6 8 8 9 10 9 8 8
5 6 9 5 6 14 17 16 15 16 16 19 19 20 21 21 14 14 13 10 7 8 9 9 8 8 7 7 7 7 7 7 6 6 4 5 4 2 1 1 1 1 1 2 3 5 4 5 4 5 5 6 7 8 9 8 8 8 8 9 9 9 9
3 4 7 9 9 8 18 17 17 15 16 17 19 20 22 12 9 9 7 8 8 7 8 7 8 8 7 7 6 7 6 6 7 6 5 4 6 4 2 1 1 2 1 1 3 3 3 4 5 5 5 5 5 5 6 7 7 7 7 7 8 8 8
Wind_Direction
199 197 199 191 174 164 173 175 177 179 190 193 193 177 171 168 172 179 188 176 200 204 211 215 222 222 217 203 206 205 206 212 212 218 230 236 245 248 255 269 275 281 290 286 279 290 292 293 300 297 292 293 291 292 289 286 281 281 279 278 277 279 283
203 200 198 179 164 175 175 181 185 195 187 196 189 173 164 171 178 183 192 188 201 207 208 213 221 223 215 205 209 206 211 209 213 212 215 225 232 244 255 255 271 275 280 289 287 290 284 286 302 293 292 289 293 292 290 288 285 281 276 277 285 290 287
206 202 195 166 171 170 177 183 196 196 196 199 196 185 170 178 177 180 186 188 200 203 201 212 220 222 210 205 212 217 217 211 216 213 219 230 230 248 254 257 259 267 272 283 291 288 286 290 297 287 293 293 284 285 288 286 283 282 284 287 292 287 282
206 200 168 172 174 171 179 186 191 186 197 202 199 188 176 185 192 195 195 196 198 198 197 210 217 223 209 204 216 220 219 214 212 214 223 229 237 245 254 259 257 257 273 278 285 278 292 298 299 293 282 285 286 286 284 278 281 283 288 291 288 282 281
200 194 168 176 176 178 182 192 199 198 201 202 200 192 190 189 192 196 197 198 198 196 197 203 214 217 206 203 215 222 220 210 215 221 222 235 239 247 257 259 258 260 258 278 280 288 284 289 293 288 287 287 291 290 286 286 285 290 292 291 283 281 280
202 182 182 183 198 195 196 200 201 202 201 202 199 195 194 191 191 193 197 198 198 199 197 202 207 208 199 198 208 218 214 207 219 218 229 237 242 250 256 258 259 265 272 270 271 277 290 295 294 294 284 285 286 293 296 296 294 293 290 293 296 290 289
201 200 198 201 199 199 197 200 202 202 202 203 201 196 194 194 193 193 196 199 198 197 200 206 210 208 203 204 207 210 210 209 216 218 232 238 247 253 253 251 255 259 254 259 271 277 280 292 290 284 290 291 290 289 291 299 304 297 292 291 295 295 286
202 200 197 200 202 203 197 194 196 198 200 201 202 199 198 195 192 193 193 192 193 193 197 202 205 209 207 206 206 205 211 202 219 221 238 242 247 246 247 255 256 250 253 263 264 269 291 290 289 290 279 289 294 293 291 299 309 306 308 304 295 294 302
200 197 199 200 201 201 198 194 195 196 194 196 200 200 199 195 192 192 190 193 192 195 199 203 205 205 204 201 207 211 210 210 213 216 241 248 242 245 246 251 244 241 250 255 257 269 283 287 287 286 291 294 292 295 303 312 309 293 292 298 301 290 277
205 203 201 199 199 197 198 202 198 198 199 198 195 195 196 194 180 188 193 191 195 200 202 205 203 208 207 210 217 222 229 237 244 247 245 235 231 241 243 245 244 248 246 256 263 261 274 283 281 285 287 288 291 300 307 301 298 297 298 299 290 286 289
207 207 205 202 198 197 200 203 201 201 208 211 206 193 195 190 183 187 193 194 194 200 198 199 204 205 212 215 223 229 237 244 250 256 258 260 264 258 248 233 248 244 239 245 248 258 261 272 283 284 281 285 299 299 294 291 290 290 294 291 301 306 309
213 210 207 205 201 201 202 205 203 208 211 211 211 203 191 194 188 177 195 192 196 197 194 196 195 202 203 213 214 216 236 249 257 261 264 269 272 275 277 274 274 280 280 274 279 279 279 284 276 285 296 298 301 296 284 276 279 286 289 294 291 285 288
213 214 208 204 204 206 204 204 207 213 213 213 212 208 196 186 192 183 176 196 193 191 193 192 186 190 199 206 218 222 217 216 240 258 264 272 277 282 281 279 278 278 278 285 280 276 275 265 296 297 294 290 284 277 276 279 278 285 287 285 282 285 292
217 213 209 206 206 207 205 203 207 215 215 215 213 211 201 183 194 195 195 200 196 196 194 191 185 187 199 200 211 216 214 205 218 234 247 257 258 267 276 277 278 279 278 280 282 282 278 286 281 283 282 274 269 276 274 285 286 293 288 283 282 289 287
215 214 210 208 205 206 207 206 208 214 216 216 214 212 209 171 185 182 193 193 195 198 194 186 186 190 197 195 199 199 196 205 221 216 231 244 250 250 254 251 253 256 256 262 257 257 263 272 275 271 271 266 270 275 290 292 292 300 294 292 288 279 279
219 214 211 207 202 203 211 211 214 214 216 216 215 213 211 188 180 182 181 192 188 189 188 182 184 189 193 194 198 203 220 223 212 205 227 242 245 249 248 249 240 259 268 268 260 265 280 281 279 286 294 303 303 298 302 301 294 283 279 290 290 288 301
214 211 209 204 200 201 210 208 214 214 215 217 215 213 201 193 181 179 181 186 192 190 183 181 181 186 186 191 197 204 224 239 253 255 246 245 251 249 247 257 259 273 279 283 286 291 293 296 303 304 302 300 301 302 300 292 287 276 298 285 289 292 298
214 210 206 204 201 202 205 207 210 215 217 215 216 211 197 187 186 176 178 176 180 178 183 185 189 187 184 188 199 205 230 243 247 246 248 251 265 272 273 275 288 293 287 292 297 307 313 313 303 301 305 307 306 300 300 295 279 299 305 275 266 288 299
208 206 203 206 205 204 206 204 208 214 217 216 215 211 191 187 182 176 178 171 175 178 176 183 196 199 187 194 202 211 230 239 242 232 242 252 268 266 269 278 274 285 309 309 331 314 319 306 294 300 294 292 299 302 305 298 286 292 277 273 271 283 299
200 201 205 201 199 204 208 197 197 208 216 217 215 213 196 181 184 183 172 170 170 164 165 172 185 207 211 207 206 213 229 239 251 249 232 232 211 260 283 286 344 345 319 321 314 292 296 285 291 289 286 284 282 285 280 281 275 277 276 278 279 277 270
198 199 204 198 198 196 199 195 195 204 216 218 217 213 205 177 188 180 168 170 159 169 164 171 183 189 211 222 227 229 235 247 253 255 174 152 221 224 282 39 72 335 337 333 314 311 304 300 302 292 283 281 279 278 278 274 280 278 274 274 272 275 268
193 197 201 197 197 192 199 196 195 195 214 219 217 216 212 190 183 171 168 163 166 164 171 179 173 178 201 207 215 214 233 242 246 255 117 226 288 303 325 54 33 3 354 338 323 312 310 311 312 304 300 292 289 292 292 297 288 278 273 266 265 262 269
191 192 199 196 196 192 195 194 197 202 204 218 219 218 219 207 170 180 167 168 173 179 179 166 162 171 185 194 195 216 227 237 144 82 4 306 298 346 24 31 16 357 353 329 318 317 310 312 307 311 316 308 314 313 309 304 289 283 277 270 268 261 253
188 192 198 197 198 192 191 195 188 208 208 210 219 223 220 220 188 184 164 174 175 169 161 153 163 170 179 185 190 213 212 146 124 70 27 316 7 42 33 40 25 357 339 321 318 315 310 311 305 309 310 315 315 308 307 298 290 286 281 278 279 273 266
187 194 200 196 198 193 188 189 190 190 212 209 212 219 219 220 203 187 167 168 153 153 161 161 162 170 168 179 188 136 109 90 95 99 96 74 58 56 68 34 20 348 332 325 316 305 305 298 303 303 295 301 303 301 299 292 294 293 287 289 286 285 272
196 200 198 201 196 193 186 184 176 188 197 212 208 214 219 217 211 188 168 161 156 163 161 163 163 164 164 150 117 91 82 93 121 120 101 75 69 68 59 56 356 330 335 303 300 313 310 307 308 311 308 301 303 311 312 315 314 311 316 322 325 324 320
209 206 203 201 199 189 181 177 179 182 189 195 200 193 209 217 214 188 169 155 153 157 156 157 151 128 125 129 130 122 116 108 88 67 59 37 48 77 47 305 279 240 279 296 301 306 309 304 304 298 314 333 334 324 312 319 311 314 320 327 329 326 323
209 208 201 205 194 185 177 179 179 181 186 192 188 182 183 195 195 175 135 138 138 134 131 120 122 119 97 89 74 75 64 66 78 85 78 41 355 58 358 22 4 18 273 272 281 294 291 302 315 329 336 329 330 317 317 320 321 326 322 327 331 336 343
211 205 203 199 188 178 184 176 186 199 192 185 183 176 176 176 175 112 133 138 127 108 92 102 106 116 120 113 121 109 108 102 97 83 69 339 101 29 31 42 26 357 322 319 328 337 328 323 326 331 333 334 327 330 324 321 319 326 319 311 336 342 342
207 202 194 194 196 185 181 185 202 192 190 190 189 187 182 178 151 137 139 140 137 131 126 129 133 146 146 145 137 140 139 138 129 131 119 15 66 51 25 60 359 304 324 322 338 317 332 329 337 338 344 340 333 322 327 329 338 326 331 327 347 345 351
243 221 192 187 186 198 200 195 184 183 191 190 191 188 184 180 159 144 147 138 123 115 133 138 143 146 146 152 149 149 152 149 145 157 137 140 224 67 51 26 325 320 323 337 323 337 326 329 346 348 338 341 334 327 324 326 326 326 334 345 327 336 341
253 247 222 199 186 171 203 201 190 186 188 189 189 189 183 179 166 155 151 150 142 128 142 145 142 149 158 157 156 158 145 147 151 165 153 151 96 63 49 55 318 326 3 324 331 347 343 350 357 349 343 334 330 327 326 330 342 349 347 344 334 334 338
318 316 290 228 194 182 176 185 190 190 188 187 188 186 183 177 172 164 157 151 141 136 141 146 146 152 160 164 161 158 153 159 160 156 161 169 139 126 260 270 284 348 354 333 355 12 345 357 353 352 343 339 333 340 338 342 345 342 343 339 342 332 348
339 340 323 325 228 183 183 185 186 188 188 186 184 184 180 176 173 170 164 153 148 146 149 147 148 153 163 162 150 148 147 151 165 156 149 163 147 159 215 278 328 44 4 6 10 4 353 1 3 352 359 347 345 336 327 343 349 348 356 0 355 344 344
328 345 349 319 307 189 177 178 182 185 188 185 183 180 177 171 170 175 167 149 131 139 143 153 156 160 163 158 158 161 159 160 166 155 157 156 149 156 98 34 47 37 359 13 17 19 6 12 3 2 3 356 345 349 357 356 353 352 355 355 351 348 346
317 331 324 314 300 216 173 173 176 181 184 184 181 178 176 169 168 175 141 129 143 144 150 147 154 155 159 160 151 148 156 160 160 164 162 162 144 141 134 107 64 44 14 353 38 28 6 14 10 13 5 354 346 358 348 348 347 345 344 354 355 347 351